Wind_Speed
11 11 12 12 12 12 11 12 12 12 12 13 12 12 12 11 11 11 11 12 12 13 13 14 14 14 14 15 15 15 16 15 15 16 17 18 18 19 19 20 21 21 21
12 11 12 12 12 12 12 13 13 13 13 13 12 13 13 13 13 13 13 13 13 14 14 14 14 14 15 16 16 16 17 17 17 17 18 19 20 21 22 22 22 22 23
11 11 12 12 12 13 13 14 13 13 13 14 14 14 14 13 13 14 14 14 14 14 14 14 15 15 15 16 16 17 17 17 17 18 19 20 22 23 23 23 24 24 24
11 11 12 12 12 12 13 13 13 12 13 13 14 14 14 14 14 14 14 14 14 14 14 14 15 15 16 16 17 17 17 18 19 19 20 22 22 23 24 24 24 25 25
12 12 13 13 13 13 13 13 13 13 13 13 14 14 14 15 15 14 14 14 14 15 16 16 16 16 17 17 18 18 18 20 21 21 22 23 24 24 25 25 25 25 26
13 13 14 14 14 14 14 14 14 14 14 14 14 14 14 14 14 15 15 15 15 16 16 17 18 18 18 18 19 19 20 21 22 23 24 24 24 25 26 26 27 27 28
14 14 15 15 15 15 15 15 15 15 14 14 14 13 14 15 15 15 15 16 16 17 18 19 19 19 19 19 20 20 22 23 23 24 24 25 25 25 26 27 28 29 30
15 15 15 15 15 15 15 15 16 15 14 14 14 14 15 15 16 17 16 16 18 19 19 20 20 20 20 21 22 23 23 24 25 25 25 26 26 26 27 28 29 29 30
16 16 16 16 16 16 16 16 16 15 15 15 16 15 16 16 17 18 18 19 20 20 21 21 21 21 21 22 23 24 24 25 26 26 26 27 27 27 28 29 30 30 31
17 17 17 16 16 16 17 17 17 16 17 17 17 16 16 18 19 19 19 20 21 21 22 22 22 22 23 24 24 25 25 26 27 27 27 27 28 29 30 31 32 32 32
18 17 17 17 17 17 17 17 17 18 18 18 18 18 18 19 19 19 20 21 21 22 22 22 22 23 24 24 25 26 26 27 27 28 28 28 29 30 31 31 32 33 33
18 18 18 18 18 18 18 18 19 19 19 19 19 19 20 20 20 20 21 21 21 22 22 23 23 24 25 25 25 26 27 28 28 28 29 29 30 31 31 32 33 33 34
19 18 18 19 19 19 19 19 20 21 20 20 21 21 21 21 21 20 21 21 22 22 22 23 24 24 25 25 26 27 28 29 29 29 30 30 31 31 32 32 33 34 35
20 19 19 20 20 20 21 21 22 21 21 21 22 22 22 22 22 22 22 22 22 22 23 23 24 24 25 25 26 27 28 29 30 30 31 31 32 32 32 33 34 34 34
21 21 20 21 21 22 22 23 23 22 22 22 23 22 22 22 22 22 22 22 22 23 23 24 24 25 25 26 27 28 29 29 30 30 31 32 32 33 33 33 33 33 33
21 21 21 21 21 22 23 23 23 23 22 23 22 22 22 22 22 22 22 22 22 23 24 25 25 26 26 27 28 28 29 29 30 31 31 32 32 33 33 33 34 34 35
21 22 22 22 22 22 22 23 22 22 22 22 21 21 21 21 21 21 22 22 23 24 25 25 26 27 27 28 28 29 29 30 30 31 32 33 33 33 34 34 35 35 36
21 22 22 22 23 23 22 22 22 23 22 22 21 21 21 21 21 22 23 23 24 24 25 26 26 27 27 28 28 29 30 31 32 33 33 34 34 35 35 35 36 36 37
22 22 22 23 23 23 23 22 23 23 23 22 22 22 22 22 22 22 23 24 25 25 25 26 27 28 28 29 30 31 31 32 33 34 34 35 35 36 36 37 37 37 38
22 22 22 22 22 22 22 23 23 23 23 23 23 23 22 23 23 24 24 25 26 26 27 28 29 29 30 30 31 32 33 34 34 35 36 36 36 37 37 37 37 38 38
23 23 22 22 22 22 23 23 23 23 23 23 23 23 24 24 24 25 26 26 26 28 29 30 30 31 31 32 33 34 35 35 35 36 36 37 38 38 38 38 38 38 39
22 22 22 22 22 23 23 23 23 23 23 23 24 24 25 25 26 27 27 27 27 28 29 31 32 32 33 34 35 35 36 36 36 37 37 37 38 38 38 38 38 38 38
21 21 21 22 23 23 23 23 23 23 23 23 24 25 25 26 27 28 28 29 29 30 32 33 33 34 34 35 36 36 36 35 36 36 37 37 37 37 37 37 38 38 38
21 21 21 22 22 22 22 21 21 22 23 24 24 25 27 27 27 27 28 29 31 31 32 32 33 34 35 36 36 35 35 36 36 36 36 36 36 37 37 37 37 38 37
22 21 21 21 21 21 21 21 21 22 23 23 24 25 26 26 26 27 28 29 31 31 32 33 34 35 35 35 35 34 35 35 35 35 35 35 35 35 35 36 36 36 36
21 21 21 21 21 21 20 20 21 22 22 23 24 25 25 25 25 27 28 29 30 31 33 33 34 34 33 33 34 34 34 34 35 35 34 34 34 34 34 35 35 36 36
Wind_Direction
291 292 294 297 298 296 294 291 292 292 292 292 288 290 291 284 280 280 283 286 288 290 289 288 287 285 283 282 281 280 281 281 281 278 278 279 280 281 281 281 281 281 279
287 290 292 294 297 295 292 292 292 291 292 293 287 286 284 281 280 281 282 285 287 288 290 291 290 289 287 285 282 281 281 281 281 280 280 282 283 283 281 279 280 279 278
284 289 292 292 292 291 291 293 292 291 291 291 286 283 281 281 280 281 282 284 286 287 290 292 291 290 289 288 287 286 284 284 285 283 282 284 284 284 283 281 281 281 279
277 284 289 290 291 293 297 299 295 293 292 288 286 285 283 280 279 280 282 285 285 285 287 291 292 292 290 289 289 288 287 287 287 286 286 285 286 286 286 283 282 283 281
276 282 286 287 290 293 295 297 296 295 294 292 290 288 287 282 279 281 284 284 286 286 286 288 290 292 291 291 290 289 289 289 289 288 288 287 285 285 285 283 283 284 283
277 277 280 285 290 293 295 297 295 294 298 295 290 289 290 288 288 286 284 285 287 287 286 287 290 292 291 292 292 291 291 292 292 291 290 288 286 285 285 285 284 284 284
276 274 275 281 288 292 292 294 296 296 295 294 289 289 289 287 289 291 285 285 287 286 286 287 290 290 289 289 291 292 293 294 295 293 291 288 287 285 284 285 285 286 286
273 273 274 278 284 287 291 294 295 295 292 292 289 288 289 288 289 290 289 290 289 288 287 287 289 290 290 290 291 293 293 295 297 295 293 292 290 287 285 285 286 288 289
273 273 276 278 282 284 289 292 292 292 293 294 291 287 288 291 291 290 289 289 289 290 289 288 289 290 291 291 291 292 293 294 295 296 295 294 291 289 288 287 289 290 290
271 273 275 276 279 284 289 291 290 291 292 293 293 293 292 292 291 289 288 289 289 290 290 290 290 290 291 292 292 292 293 293 294 295 295 294 294 293 291 289 290 291 292
268 270 272 273 277 283 287 288 291 291 290 292 293 294 294 294 292 290 291 292 290 289 289 290 290 290 290 291 293 293 293 294 294 295 296 297 296 295 294 293 292 292 292
268 270 271 272 276 280 284 288 289 292 290 288 289 291 293 293 292 290 291 292 291 290 289 290 291 291 291 292 293 294 294 295 295 296 298 297 297 297 295 294 294 294 293
267 269 270 272 275 278 281 285 289 290 289 286 286 288 291 292 290 290 291 292 291 291 292 291 293 294 293 292 294 295 296 296 297 297 297 297 298 298 297 296 296 295 294
267 269 270 271 273 276 279 282 287 290 289 286 286 287 288 289 289 289 290 291 292 294 295 296 295 295 295 295 295 296 297 297 297 297 298 298 299 299 299 300 299 297 296
267 269 271 273 275 278 279 281 284 287 291 291 289 287 287 288 290 292 292 291 292 294 295 295 295 295 295 296 297 297 297 298 298 300 300 301 301 301 301 301 301 301 299
267 269 271 274 276 279 280 281 282 285 288 291 290 288 286 288 290 291 291 291 292 295 295 296 297 297 298 298 298 298 298 299 301 302 302 302 303 304 304 303 304 303 302
268 270 271 274 277 280 280 279 281 283 285 289 288 287 289 289 290 290 291 293 294 295 297 298 298 298 299 300 300 300 300 301 302 303 304 305 305 305 305 304 303 303 302
268 271 273 275 275 277 278 277 279 282 283 286 287 289 290 291 290 290 291 293 295 297 297 298 299 300 302 303 303 303 303 303 303 303 304 304 304 304 304 304 303 303 302
269 271 274 276 276 275 276 277 280 282 284 286 287 287 288 290 290 290 291 292 294 296 297 298 299 302 303 304 304 303 303 303 303 303 304 304 305 305 305 304 303 303 303
269 272 275 277 276 275 276 278 280 282 285 285 286 287 288 290 291 292 292 293 295 297 298 300 301 303 303 303 304 305 304 304 304 304 305 305 305 305 305 305 305 304 304
270 271 273 275 276 276 277 277 279 280 283 285 285 287 290 290 290 291 293 295 296 297 298 300 301 302 302 303 303 304 305 304 304 304 305 305 305 305 305 304 305 305 306
271 272 274 275 276 277 278 278 279 280 282 285 286 287 288 290 292 293 294 295 295 296 298 300 300 301 302 303 304 304 304 304 304 304 304 304 304 304 305 305 306 306 307
271 272 273 275 277 278 277 278 279 281 284 286 288 289 291 293 294 294 293 294 295 297 298 299 300 301 303 304 305 305 305 305 305 305 306 306 305 306 306 307 307 308 308
272 273 274 274 276 277 277 277 279 281 284 286 289 290 292 293 294 293 293 294 296 298 299 300 301 301 303 305 306 305 304 304 305 306 307 307 307 307 307 308 308 309 309
271 272 273 274 275 276 277 279 281 285 288 290 292 293 294 295 295 295 296 297 298 300 301 302 303 304 306 307 307 307 307 307 307 307 308 308 309 309 310 310 311 312 312
270 271 272 273 274 276 277 280 284 288 292 293 295 296 296 296 296 297 298 299 300 302 303 304 305 307 308 308 308 308 309 309 309 308 308 309 310 310 311 312 313 314 314
Height
5889 5888 5887 5887 5885 5883 5882 5882 5881 5881 5880 5879 5878 5878 5877 5876 5875 5875 5875 5874 5873 5873 5872 5871 5870 5869 5868 5867 5866 5865 5864 5864 5863 5862 5861 5860 5859 5858 5857 5856 5855 5855 5854
5886 5886 5885 5884 5883 5882 5881 5880 5879 5878 5877 5876 5875 5875 5874 5873 5872 5872 5872 5871 5870 5869 5869 5868 5866 5865 5865 5863 5862 5861 5860 5860 5859 5858 5857 5855 5854 5853 5852 5851 5850 5849 5848
5883 5883 5882 5882 5880 5879 5878 5877 5876 5875 5874 5873 5872 5871 5871 5870 5869 5869 5868 5868 5867 5866 5865 5864 5863 5862 5861 5860 5859 5858 5856 5855 5854 5853 5852 5851 5849 5848 5847 5845 5844 5843 5842
5880 5880 5879 5878 5878 5877 5875 5874 5873 5872 5871 5870 5869 5868 5867 5866 5866 5866 5865 5864 5863 5862 5862 5861 5859 5858 5857 5856 5855 5853 5852 5851 5850 5848 5847 5845 5844 5842 5841 5840 5838 5837 5835
5876 5876 5876 5875 5875 5874 5872 5871 5870 5869 5868 5867 5866 5865 5864 5863 5862 5862 5861 5861 5860 5859 5858 5857 5856 5855 5853 5852 5850 5849 5847 5846 5845 5843 5841 5840 5838 5836 5835 5833 5832 5830 5829
5873 5873 5873 5872 5871 5870 5869 5868 5867 5866 5865 5864 5862 5861 5861 5860 5859 5858 5858 5857 5856 5855 5854 5853 5852 5850 5849 5847 5846 5844 5843 5841 5839 5837 5835 5833 5831 5830 5828 5826 5825 5823 5822
5870 5869 5869 5869 5868 5867 5866 5865 5863 5862 5861 5860 5859 5858 5857 5856 5856 5854 5853 5853 5852 5851 5850 5848 5847 5846 5844 5842 5841 5839 5837 5835 5833 5831 5829 5827 5825 5823 5821 5819 5817 5815 5814
5866 5866 5866 5865 5865 5864 5863 5862 5860 5859 5858 5857 5856 5855 5854 5853 5852 5851 5849 5848 5847 5846 5845 5843 5842 5840 5839 5837 5835 5833 5831 5829 5827 5824 5822 5820 5818 5816 5814 5812 5810 5808 5805
5862 5862 5862 5861 5861 5860 5859 5858 5856 5855 5854 5853 5852 5851 5850 5849 5848 5846 5845 5843 5842 5841 5839 5838 5836 5835 5833 5831 5829 5827 5825 5822 5820 5817 5815 5813 5810 5808 5806 5804 5802 5799 5797
5858 5857 5857 5857 5857 5856 5855 5854 5853 5852 5851 5849 5848 5847 5846 5844 5843 5841 5840 5839 5837 5835 5834 5832 5830 5829 5827 5825 5823 5821 5818 5816 5813 5811 5808 5806 5803 5801 5798 5796 5793 5790 5788
5853 5853 5853 5853 5853 5852 5851 5850 5849 5848 5847 5845 5844 5843 5841 5840 5838 5836 5835 5833 5832 5830 5828 5826 5824 5822 5820 5818 5816 5814 5811 5809 5807 5804 5801 5798 5796 5793 5790 5787 5784 5781 5778
5848 5848 5848 5848 5848 5848 5847 5846 5845 5843 5842 5841 5839 5838 5836 5834 5833 5831 5829 5828 5826 5824 5822 5820 5818 5816 5814 5812 5810 5807 5805 5802 5800 5797 5794 5791 5788 5785 5781 5778 5775 5772 5769
5843 5843 5843 5843 5843 5842 5842 5841 5840 5838 5836 5835 5834 5832 5831 5829 5827 5825 5823 5821 5820 5818 5816 5814 5812 5809 5807 5805 5803 5800 5798 5795 5792 5789 5786 5783 5780 5777 5773 5770 5766 5763 5759
5837 5837 5837 5837 5837 5837 5836 5835 5834 5833 5831 5829 5828 5826 5825 5823 5821 5819 5817 5816 5814 5812 5809 5807 5805 5803 5800 5798 5795 5793 5790 5788 5784 5781 5778 5775 5771 5768 5764 5761 5757 5754 5750
5831 5831 5831 5831 5831 5830 5830 5829 5828 5827 5825 5823 5822 5820 5818 5817 5815 5813 5811 5809 5808 5806 5803 5801 5799 5796 5794 5791 5789 5786 5783 5780 5777 5773 5770 5766 5763 5759 5756 5752 5748 5744 5741
5825 5825 5825 5825 5825 5824 5823 5822 5821 5820 5819 5817 5815 5814 5812 5811 5808 5807 5805 5803 5801 5799 5797 5795 5792 5790 5787 5784 5781 5778 5775 5772 5769 5765 5762 5758 5755 5751 5747 5743 5739 5735 5731
5818 5818 5818 5818 5818 5817 5816 5815 5814 5813 5812 5810 5809 5807 5806 5804 5802 5800 5799 5797 5795 5793 5791 5788 5785 5783 5780 5777 5774 5771 5767 5764 5761 5757 5754 5750 5746 5742 5738 5734 5730 5726 5722
5812 5812 5812 5811 5811 5810 5809 5809 5808 5807 5806 5804 5803 5801 5800 5798 5796 5794 5792 5791 5789 5786 5784 5781 5779 5776 5773 5769 5766 5763 5760 5756 5753 5749 5745 5741 5737 5733 5729 5725 5721 5716 5712
5805 5805 5805 5805 5804 5803 5803 5802 5801 5800 5799 5798 5796 5795 5793 5792 5790 5788 5786 5784 5782 5779 5777 5774 5771 5768 5765 5762 5759 5755 5752 5748 5745 5740 5736 5732 5728 5724 5719 5715 5711 5706 5702
5799 5798 5798 5798 5797 5797 5796 5796 5795 5794 5793 5791 5790 5789 5787 5785 5783 5782 5779 5777 5775 5772 5769 5767 5764 5761 5758 5754 5751 5747 5744 5740 5736 5732 5727 5723 5718 5714 5710 5705 5701 5696 5692
5792 5792 5791 5791 5791 5790 5790 5789 5788 5788 5787 5785 5784 5782 5780 5779 5777 5775 5773 5770 5767 5764 5762 5759 5756 5753 5750 5746 5742 5739 5735 5730 5726 5722 5718 5713 5709 5704 5700 5695 5691 5686 5682
5785 5785 5785 5784 5784 5784 5783 5783 5782 5781 5780 5778 5777 5775 5773 5771 5769 5767 5765 5762 5759 5756 5754 5751 5748 5744 5741 5737 5733 5729 5725 5721 5717 5712 5708 5703 5699 5694 5690 5685 5681 5676 5671
5778 5778 5778 5778 5777 5777 5776 5776 5775 5774 5772 5771 5769 5767 5766 5764 5761 5759 5756 5754 5751 5748 5745 5742 5739 5735 5732 5728 5724 5720 5716 5711 5707 5703 5698 5694 5689 5685 5680 5676 5671 5666 5662
5772 5772 5771 5771 5771 5770 5769 5768 5768 5767 5765 5764 5762 5760 5758 5756 5753 5751 5748 5746 5743 5740 5737 5733 5730 5726 5722 5718 5714 5710 5706 5702 5698 5693 5689 5685 5680 5676 5671 5666 5662 5657 5652
5765 5765 5765 5764 5764 5764 5763 5762 5761 5760 5759 5757 5755 5753 5750 5748 5745 5743 5740 5738 5735 5731 5728 5725 5721 5717 5713 5709 5705 5701 5697 5692 5688 5684 5680 5675 5671 5666 5662 5657 5653 5648 5643
5758 5759 5759 5758 5758 5757 5756 5755 5754 5753 5752 5750 5748 5745 5743 5741 5738 5735 5733 5730 5727 5723 5720 5716 5712 5708 5704 5700 5696 5692 5688 5684 5679 5675 5671 5666 5662 5657 5653 5648 5644 5639 5634